Regional Weather Roundup
Issued by NWS Goodland, KS

Home | Current Version | Previous Version | Text Only | Print | Product List | Glossary Off
Versions: 1 2 3 4 5 6 7 8 9 10 11 12 13 14 15 16 17 18 19 20 21 22 23 24 25 26 27 28 29 30 31 32 33 34 35 36 37 38 39 40 41 42 43 44 45 46 47 48 49 50

000
ASUS43 KGLD 261859
RWRGLD

GOODLAND FORECAST AREA HOURLY WEATHER ROUNDUP
NATIONAL WEATHER SERVICE GOODLAND KS
100 PM MDT WED JUL 26 2017

...OFFICIAL OBSERVATIONS...

CITY           SKY/WX    TMP DP  RH WIND       PRES   REMARKS
GOODLAND KS    PTSUNNY   81  66  60 N21G30    30.10S
HILL CITY KS   SUNNY     93  69  45 N10       29.95R
IMPERIAL NEB   CLOUDY    79  64  60 N14       30.11R
MCCOOK NEB     CLOUDY    78  69  73 N15       30.04R
AKRON CO       CLOUDY    81  59  47 N15G22    30.19F
BURLINGTON CO  MOSUNNY   81  65  58 N18G25    30.15R
LIMON CO       SUNNY     79  62  56 N13       30.24S
$$

...UNOFFICIAL OBSERVATIONS...

CITY           SKY/WX    TMP DP  RH WIND       PRES   REMARKS
LENORA KS        N/A     86  32  14 MISG        N/A
NORTON KS      CLOUDY    84  64  51 N15       29.98R
SHARON SPRINGS   N/A     81  70  69 NW15G22     N/A
TRENTON NEB      N/A     79  32  18 N9          N/A
KIT CARSON CO    N/A     86  62  44 MISG        N/A
YUMA CO        CLOUDY    81  54  39 NE9G21    30.15S
$$




USA.gov is the U.S. government's official web portal to all federal, state and local government web resources and services.